Hourly Data Report for November 14, 2019

CARBERRY CS
MANITOBA
Current Station Operator: ECCC - MSC

49°54'20.900" N
99°21'26.800" W
383.50 m
5010547
71170
WZE

Download Data

Hourly Data (November 2019)
Hourly Data Report for November 14, 2019
TIME
LST
Temp Definition
°C
Dew Point Definition
°C
Rel Hum Definition
%
Precip. Amount Definition
mm

Wind Dir Definition
10's deg

Wind Spd Definition
km/h
Visibility Definition
km
Stn Press Definition
kPa
Hmdx Definition


Wind Chill Definition


Weather Definition


00:00 -14.7 -17.1 82 0.0 25 8   97.31   -20 LegendNANA
01:00 -15.5 -17.8 82 0.0 22 7   97.23   -20 LegendNANA
02:00 -14.8 -17.1 83 0.0 21 9   97.17   -21 LegendNANA
03:00 -14.6 -16.9 82 0.0 20 11   97.11   -21 LegendNANA
04:00 -11.9 -14.5 81 0.0 21 10   97.05   -18 LegendNANA
05:00 -10.0 -12.5 81 0.0 22 11   96.93   -16 LegendNANA
06:00 -7.1 -10.2 79 0.0 23 9   96.84   -11 LegendNANA
07:00 -6.3 -9.0 81 0.0 20 13   96.79   -12 LegendNANA
08:00 -5.3 -6.3 92 0.0 22 10   96.78   -10 LegendNANA
09:00 -2.2 -3.8 89 0.0 28 18   96.88   -8 LegendNANA
10:00 -1.3 -2.9 89 0.0 28 18   96.93   -7 LegendNANA
11:00 -0.8 -2.8 86 0.0 28 9   97.02   -4 LegendNANA
12:00 0.9 -2.3 79 0.0 30 16   97.07     LegendNANA
13:00 -2.3 -5.0 82 0.0 1 19   97.15   -8 LegendNANA
14:00 -3.0 -6.3 78 0.0 2 14   97.22   -8 LegendNANA
15:00 -3.0 -7.0 74 0.0 2 11   97.25   -7 LegendNANA
16:00 -2.9 -7.4 71 0.0 5 5   97.33   -5 LegendNANA
17:00 -3.1 -7.7 71 0.0 4 2   97.38   -4 LegendNANA
18:00 -3.3 -7.8 71 0.0 13 2   97.42   -4 LegendNANA
19:00 -3.6 -7.2 76 0.0 20 5   97.48   -6 LegendNANA
20:00 -5.9 -8.9 80 0.0 12 4   97.52   -8 LegendNANA
21:00 -7.9 -10.1 84 0.0 11 7   97.50   -12 LegendNANA
22:00 -9.5 -11.1 88 0.0 12 3   97.59   -11 LegendNANA
23:00 -10.5 -11.7 90 0.0 6 5   97.63   -14 LegendNANA

Notes on Data Quality.

Legend

  • E = Estimated
  • M = Missing
  • NA = Not Available*
  • [empty] = Indicates an unobserved value
Date modified: